Radiation Dose at Monitoring Post of Fukushima Daini Nuclear Power Station
Date,Time,MP-1(microSv/h),MP-2(microSv/h),MP-3(microSv/h),MP-4(microSv/h),MP-5(microSv/h),MP-6(microSv/h),MP-7(microSv/h),Wind Direction,Wind Velocity(m/s),Rain
2023/11/17,00:00,0.147,0.132,0.209,0.200,0.207,0.120,0.075,north-northwest,0.9,No
2023/11/17,00:10,0.145,0.133,0.209,0.200,0.207,0.120,0.075,north,2.2,No
2023/11/17,00:20,0.146,0.133,0.208,0.199,0.206,0.119,0.076,north,3.0,No
2023/11/17,00:30,0.147,0.132,0.209,0.200,0.208,0.119,0.076,north-northwest,1.8,No
2023/11/17,00:40,0.146,0.131,0.208,0.200,0.206,0.120,0.076,north-northwest,1.8,No
2023/11/17,00:50,0.146,0.133,0.208,0.201,0.207,0.119,0.076,north-northwest,2.2,No
2023/11/17,01:00,0.145,0.132,0.209,0.201,0.207,0.120,0.076,north-northwest,1.8,No
2023/11/17,01:10,0.147,0.132,0.209,0.199,0.207,0.119,0.075,north-northwest,1.6,No
2023/11/17,01:20,0.145,0.133,0.208,0.201,0.208,0.119,0.076,north-northwest,1.5,No
2023/11/17,01:30,0.146,0.132,0.209,0.199,0.206,0.120,0.076,north,1.5,No
2023/11/17,01:40,0.147,0.133,0.208,0.200,0.208,0.119,0.076,north-northwest,2.1,No
2023/11/17,01:50,0.146,0.131,0.208,0.200,0.206,0.119,0.076,north-northwest,2.3,No
2023/11/17,02:00,0.147,0.132,0.209,0.200,0.207,0.119,0.076,northwest,2.2,No
2023/11/17,02:10,0.146,0.133,0.208,0.199,0.206,0.120,0.076,north-northwest,1.6,No
2023/11/17,02:20,0.146,0.132,0.209,0.200,0.206,0.120,0.076,north,1.2,No
2023/11/17,02:30,0.148,0.132,0.209,0.200,0.209,0.119,0.076,north-northeast,1.3,No
2023/11/17,02:40,0.146,0.133,0.208,0.199,0.207,0.120,0.076,north-northeast,1.6,No
2023/11/17,02:50,0.146,0.132,0.209,0.201,0.209,0.119,0.077,north-northeast,2.0,Yes
2023/11/17,03:00,0.147,0.133,0.209,0.200,0.206,0.120,0.076,north-northeast,1.9,Yes
2023/11/17,03:10,0.147,0.132,0.209,0.202,0.209,0.120,0.076,north,1.6,Yes
2023/11/17,03:20,0.147,0.133,0.211,0.202,0.208,0.121,0.077,north,2.0,Yes
2023/11/17,03:30,0.148,0.134,0.210,0.200,0.208,0.121,0.078,north-northwest,1.5,Yes
2023/11/17,03:40,0.148,0.134,0.210,0.203,0.210,0.122,0.078,northwest,2.9,Yes
2023/11/17,03:50,0.148,0.135,0.211,0.201,0.208,0.121,0.078,northwest,3.5,Yes
2023/11/17,04:00,0.148,0.134,0.211,0.201,0.209,0.122,0.078,west-northwest,3.3,Yes
2023/11/17,04:10,0.149,0.134,0.211,0.202,0.209,0.121,0.079,west,2.9,Yes
2023/11/17,04:20,0.148,0.135,0.210,0.201,0.207,0.121,0.079,west-northwest,1.6,Yes
2023/11/17,04:30,0.149,0.134,0.210,0.200,0.209,0.122,0.077,west,1.0,Yes
2023/11/17,04:40,0.149,0.135,0.210,0.201,0.207,0.122,0.077,west-northwest,1.1,Yes
2023/11/17,04:50,0.147,0.133,0.209,0.199,0.208,0.120,0.077,northwest,1.5,Yes
2023/11/17,05:00,0.147,0.133,0.209,0.201,0.207,0.121,0.076,north-northwest,1.9,Yes
2023/11/17,05:10,0.146,0.133,0.207,0.201,0.208,0.121,0.077,north-northwest,1.4,No
2023/11/17,05:20,0.147,0.133,0.208,0.199,0.207,0.121,0.077,north-northwest,1.8,Yes
2023/11/17,05:30,0.147,0.133,0.209,0.200,0.207,0.120,0.077,north-northwest,1.8,Yes
2023/11/17,05:40,0.147,0.134,0.208,0.199,0.208,0.121,0.077,northwest,1.3,Yes
2023/11/17,05:50,0.148,0.133,0.209,0.200,0.207,0.120,0.078,northwest,0.9,Yes
2023/11/17,06:00,0.148,0.134,0.210,0.202,0.209,0.122,0.080,west-southwest,0.7,Yes
2023/11/17,06:10,0.149,0.135,0.208,0.200,0.206,0.122,0.080,north-northeast,2.3,Yes
2023/11/17,06:20,0.149,0.136,0.209,0.200,0.207,0.123,0.081,north-northwest,1.5,Yes
2023/11/17,06:30,0.150,0.136,0.210,0.202,0.209,0.124,0.081,northwest,2.1,Yes
2023/11/17,06:40,0.150,0.136,0.209,0.200,0.207,0.123,0.082,north,0.7,Yes
2023/11/17,06:50,0.151,0.138,0.209,0.201,0.210,0.123,0.082,southeast,1.4,Yes
2023/11/17,07:00,0.151,0.137,0.208,0.200,0.209,0.125,0.084,east-southeast,1.2,Yes
2023/11/17,07:10,0.152,0.138,0.210,0.202,0.210,0.126,0.085,east-southeast,1.8,Yes
2023/11/17,07:20,0.152,0.140,0.212,0.204,0.211,0.127,0.085,-,CALM,Yes
2023/11/17,07:30,0.152,0.139,0.212,0.202,0.212,0.127,0.086,south-southeast,0.8,Yes
2023/11/17,07:40,0.151,0.139,0.212,0.204,0.215,0.127,0.085,west,1.4,Yes
2023/11/17,07:50,0.152,0.141,0.212,0.203,0.213,0.127,0.087,west-southwest,1.7,Yes
2023/11/17,08:00,0.152,0.140,0.213,0.202,0.212,0.128,0.086,south-southeast,3.3,Yes
2023/11/17,08:10,0.150,0.140,0.212,0.204,0.214,0.126,0.085,southeast,7.5,Yes
2023/11/17,08:20,0.151,0.139,0.210,0.203,0.212,0.125,0.085,southeast,9.2,Yes
2023/11/17,08:30,0.149,0.137,0.209,0.201,0.212,0.124,0.084,southeast,6.5,Yes
2023/11/17,08:40,0.149,0.139,0.209,0.204,0.210,0.124,0.084,southeast,5.1,Yes
2023/11/17,08:50,0.147,0.138,0.211,0.201,0.210,0.124,0.084,southeast,5.7,Yes
2023/11/17,09:00,0.149,0.137,0.210,0.202,0.209,0.123,0.084,northeast,3.8,Yes
2023/11/17,09:10,0.147,0.137,0.209,0.201,0.212,0.123,0.083,east-southeast,1.9,Yes
2023/11/17,09:20,0.147,0.135,0.210,0.201,0.208,0.123,0.082,east,4.4,Yes
2023/11/17,09:30,0.148,0.137,0.208,0.201,0.208,0.122,0.082,northeast,3.4,Yes
2023/11/17,09:40,0.147,0.137,0.205,0.195,0.207,0.124,0.086,south-southwest,3.7,Yes
2023/11/17,09:50,0.148,0.138,0.205,0.198,0.209,0.125,0.086,south,4.3,Yes
2023/11/17,10:00,0.147,0.139,0.207,0.199,0.209,0.123,0.085,south,5.0,Yes
2023/11/17,10:10,0.149,0.139,0.209,0.201,0.210,0.125,0.085,south,5.1,Yes
2023/11/17,10:20,0.149,0.138,0.209,0.202,0.212,0.125,0.085,south,6.1,Yes
2023/11/17,10:30,0.148,0.137,0.209,0.202,0.209,0.124,0.085,south,6.4,Yes
2023/11/17,10:40,0.149,0.138,0.209,0.203,0.211,0.123,0.084,south-southwest,5.8,Yes
2023/11/17,10:50,0.148,0.137,0.209,0.202,0.209,0.123,0.085,west-southwest,4.4,Yes
2023/11/17,11:00,0.147,0.137,0.209,0.202,0.210,0.124,0.084,west,7.6,Yes
2023/11/17,11:10,0.146,0.136,0.209,0.202,0.210,0.122,0.084,west,5.7,Yes
2023/11/17,11:20,0.146,0.135,0.209,0.200,0.208,0.121,0.081,west-southwest,6.8,No
2023/11/17,11:30,0.144,0.134,0.207,0.201,0.206,0.120,0.081,southwest,4.5,No
2023/11/17,11:40,0.145,0.132,0.205,0.198,0.207,0.118,0.079,southwest,5.6,No
2023/11/17,11:50,0.143,0.131,0.204,0.198,0.205,0.117,0.078,southwest,5.1,No
2023/11/17,12:00,0.144,0.131,0.204,0.196,0.207,0.117,0.077,southwest,4.7,No
2023/11/17,12:10,0.141,0.130,0.204,0.196,0.204,0.117,0.077,south-southwest,2.9,No
2023/11/17,12:20,0.142,0.131,0.203,0.196,0.206,0.116,0.076,southwest,3.7,Yes
2023/11/17,12:30,0.142,0.129,0.204,0.197,0.204,0.117,0.076,southwest,4.4,Yes
2023/11/17,12:40,0.143,0.130,0.202,0.195,0.205,0.116,0.075,southwest,3.0,Yes
2023/11/17,12:50,0.142,0.128,0.204,0.196,0.202,0.115,0.075,south,1.3,Yes
2023/11/17,13:00,0.143,0.130,0.204,0.195,0.204,0.117,0.075,south-southeast,1.0,Yes
2023/11/17,13:10,0.143,0.130,0.204,0.196,0.204,0.117,0.077,east,1.2,Yes
2023/11/17,13:20,0.143,0.131,0.205,0.195,0.206,0.117,0.077,east-southeast,1.3,Yes
2023/11/17,13:30,0.144,0.131,0.205,0.197,0.205,0.118,0.077,south-southeast,2.0,Yes
2023/11/17,13:40,0.144,0.132,0.206,0.197,0.205,0.118,0.077,south,3.2,Yes
2023/11/17,13:50,0.145,0.133,0.204,-,0.205,0.118,0.078,south,2.4,Yes
2023/11/17,14:00,0.144,0.132,0.204,-,0.206,0.119,0.079,south-southwest,8.5,Yes
2023/11/17,14:10,0.145,0.132,0.204,-,0.205,0.119,0.080,east,1.2,Yes
2023/11/17,14:20,0.145,0.133,0.204,-,0.205,0.119,0.080,north-northeast,2.4,Yes
2023/11/17,14:30,0.145,0.133,0.206,-,0.207,0.120,0.081,northeast,5.5,Yes
2023/11/17,14:40,0.144,0.134,0.203,-,0.205,0.120,0.082,east-southeast,4.9,Yes
2023/11/17,14:50,0.145,0.133,0.204,-,0.208,0.120,0.082,east-southeast,6.7,Yes
2023/11/17,15:00,0.145,0.134,0.206,-,0.207,0.120,0.082,east-southeast,8.8,Yes
2023/11/17,15:10,0.144,0.133,0.205,-,0.207,0.120,0.080,west-southwest,3.6,No
2023/11/17,15:20,0.144,0.132,0.205,0.194,0.206,0.119,0.079,southwest,2.5,Yes
2023/11/17,15:30,0.143,0.132,0.204,0.194,0.205,0.118,0.078,southwest,2.5,Yes
2023/11/17,15:40,0.143,0.131,0.203,0.193,0.205,0.118,0.078,west-southwest,2.5,Yes
2023/11/17,15:50,0.142,0.131,0.204,0.193,0.203,0.117,0.078,south-southwest,0.8,Yes
2023/11/17,16:00,0.143,0.131,0.203,0.193,0.206,0.117,0.077,southwest,1.3,Yes
2023/11/17,16:10,0.142,0.131,0.203,0.192,0.204,0.116,0.077,southwest,1.7,No
2023/11/17,16:20,0.142,0.129,0.202,0.193,0.204,0.116,0.075,west-southwest,1.7,No
2023/11/17,16:30,0.141,0.129,0.202,0.192,0.202,0.116,0.076,west,1.8,No
2023/11/17,16:40,0.141,0.130,0.202,0.192,0.204,0.115,0.075,west,2.8,No
2023/11/17,16:50,0.141,0.128,0.202,0.192,0.204,0.115,0.075,west,2.7,No
2023/11/17,17:00,0.141,0.128,0.202,0.191,0.203,0.114,0.075,west-northwest,2.0,No
2023/11/17,17:10,0.142,0.129,0.203,0.192,0.204,0.115,0.074,northwest,3.5,No
2023/11/17,17:20,0.141,0.127,0.201,0.191,0.203,0.114,0.074,northwest,4.3,No
2023/11/17,17:30,0.142,0.129,0.203,0.192,0.204,0.115,0.074,west-northwest,6.0,No
2023/11/17,17:40,0.141,0.128,0.202,0.192,0.203,0.114,0.074,west,5.1,No
2023/11/17,17:50,0.142,0.129,0.202,0.191,0.204,0.114,0.074,west,5.3,No
2023/11/17,18:00,0.141,0.129,0.203,0.193,0.202,0.114,0.074,west,3.9,No
2023/11/17,18:10,0.141,0.128,0.201,0.192,0.203,0.114,0.074,southwest,1.1,No
2023/11/17,18:20,0.141,0.128,0.203,0.192,0.202,0.115,0.074,west-northwest,2.0,No
2023/11/17,18:30,0.141,0.128,0.202,0.192,0.204,0.114,0.074,west-northwest,5.5,No
2023/11/17,18:40,0.143,0.128,0.201,0.192,0.203,0.115,0.074,west,8.2,No
2023/11/17,18:50,0.141,0.127,0.204,0.193,0.204,0.114,0.075,west-northwest,7.3,No
2023/11/17,19:00,0.142,0.128,0.202,0.193,0.204,0.115,0.074,west-northwest,7.1,No
2023/11/17,19:10,0.141,0.127,0.201,0.192,0.202,0.115,0.074,west-northwest,5.6,No
2023/11/17,19:20,0.140,0.128,0.203,0.192,0.205,0.115,0.075,west-northwest,6.8,No
2023/11/17,19:30,0.143,0.128,0.203,0.191,0.203,0.115,0.075,west,11.1,No
2023/11/17,19:40,0.142,0.128,0.203,0.194,0.203,0.116,0.074,west,11.5,No
2023/11/17,19:50,0.143,0.128,0.204,0.193,0.204,0.115,0.074,west,9.8,No
2023/11/17,20:00,0.143,0.129,0.203,0.193,0.203,0.116,0.075,west-northwest,6.8,No
2023/11/17,20:10,0.142,0.128,0.203,0.193,0.205,0.115,0.075,west,7.6,No
2023/11/17,20:20,0.143,0.129,0.204,0.193,0.203,0.115,0.074,west-northwest,8.5,No
2023/11/17,20:30,0.143,0.128,0.203,0.193,0.204,0.114,0.075,west,11.7,No
2023/11/17,20:40,0.143,0.128,0.204,0.194,0.204,0.116,0.075,west,10.9,No
2023/11/17,20:50,0.143,0.129,0.204,0.192,0.203,0.116,0.074,west,10.3,No
2023/11/17,21:00,0.143,0.129,0.204,0.194,0.205,0.115,0.074,west,8.7,No
2023/11/17,21:10,0.144,0.128,0.204,0.194,0.203,0.116,0.074,west,7.3,No
2023/11/17,21:20,0.142,0.131,0.205,0.193,0.206,0.115,0.075,west,8.1,No
2023/11/17,21:30,0.143,0.129,0.203,0.195,0.204,0.116,0.074,west,9.0,No
2023/11/17,21:40,0.143,0.129,0.204,0.194,0.203,0.116,0.075,west-northwest,11.8,No
2023/11/17,21:50,0.143,0.129,0.205,0.194,0.206,0.116,0.075,west,13.4,No
2023/11/17,22:00,0.144,0.129,0.205,0.194,0.203,0.116,0.074,west,10.1,No
2023/11/17,22:10,0.143,0.129,0.204,0.193,0.203,0.116,0.075,west,8.6,No
2023/11/17,22:20,0.143,0.129,0.204,0.194,0.205,0.115,0.074,west,9.6,No
2023/11/17,22:30,0.142,0.130,0.205,0.193,0.204,0.117,0.075,west,11.2,No
2023/11/17,22:40,0.143,0.129,0.204,0.195,0.205,0.116,0.074,west,9.0,No
2023/11/17,22:50,0.143,0.130,0.205,0.194,0.204,0.116,0.075,west,10.9,No
2023/11/17,23:00,0.144,0.129,0.205,0.194,0.205,0.117,0.075,west,9.3,No
2023/11/17,23:10,0.143,0.130,0.205,0.194,0.206,0.116,0.075,west,10.7,No
2023/11/17,23:20,0.145,0.129,0.205,0.193,0.205,0.116,0.075,west,10.3,No
2023/11/17,23:30,0.143,0.130,0.206,0.195,0.205,0.117,0.075,west,13.1,No
2023/11/17,23:40,0.144,0.130,0.205,0.194,0.205,0.117,0.075,west,9.5,No
2023/11/17,23:50,0.144,0.129,0.206,0.195,0.205,0.117,0.075,west,9.8,No
